W1SGB Weather Reports


Display with metric or nautical units.
time (UTC)temp
F
wind
direction
speed
MPH
gust
MPH
rain 1hr
in
rain 24hr
in
rain mn
in
humidity
%
barometer
mb
20260506212016 59 224 2.0 5.0 0.00 0.08 0.08 93 1007.2
20260506211020 59 214 2.0 4.0 0.00 0.08 0.08 93 1007.4
20260506210020 59 220 1.0 4.0 0.00 0.08 0.08 93 1007.5
20260506205017 59 210 2.0 6.0 0.00 0.08 0.08 93 1007.5
20260506204017 59 242 1.0 4.0 0.00 0.08 0.08 93 1007.5
20260506203018 59 210 2.0 6.0 0.01 0.08 0.08 93 1007.6
20260506202017 59 203 2.0 6.0 0.02 0.08 0.08 94 1007.6
20260506201100 59 234 1.0 3.0 0.03 0.08 0.08 94 1007.6
20260506200017 59 207 2.0 5.0 0.04 0.07 0.07 93 1007.9
20260506195038 59 205 2.0 4.0 0.05 0.07 0.07 93 1007.9
20260506194018 59 248 2.0 7.0 0.05 0.07 0.07 92 1007.9
20260506193018 59 215 2.0 5.0 0.06 0.07 0.07 91 1007.9
20260506192038 60 221 2.0 5.0 0.05 0.05 0.05 90 1008.0
20260506191018 60 199 1.0 4.0 0.04 0.04 0.04 88 1008.1
20260506190019 60 207 3.0 5.0 0.03 0.03 0.03 88 1008.2
20260506185018 61 251 1.0 5.0 0.03 0.03 0.03 86 1008.4
20260506184018 62 208 2.0 5.0 0.02 0.02 0.02 82 1008.5
20260506183019 63 224 2.0 6.0 0.01 0.01 0.01 77 1008.6
20260506182019 64 211 2.0 6.0 0.00 0.00 0.00 75 1008.7
20260506181016 65 219 2.0 5.0 0.00 0.00 0.00 71 1008.8
20260506180016 66 231 2.0 6.0 0.00 0.00 0.00 69 1008.8
20260506175016 67 275 2.0 7.0 0.00 0.00 0.00 68 1008.8
20260506174020 68 207 3.0 6.0 0.00 0.00 0.00 66 1008.9
20260506173020 69 221 3.0 6.0 0.00 0.00 0.00 65 1008.9
20260506172017 69 224 2.0 8.0 0.00 0.00 0.00 63 1009.0
20260506171018 69 211 3.0 8.0 0.00 0.00 0.00 63 1008.9
20260506170038 69 227 2.0 7.0 0.00 0.00 0.00 65 1009.0
20260506165017 70 218 3.0 9.0 0.00 0.00 0.00 64 1009.0
20260506164016 69 224 3.0 9.0 0.00 0.00 0.00 64 1009.1
20260506163036 69 205 2.0 6.0 0.00 0.00 0.00 64 1009.3
20260506162018 69 216 3.0 10.0 0.00 0.00 0.00 63 1009.5
20260506161018 69 111 2.0 7.0 0.00 0.00 0.00 64 1009.5
20260506160019 69 228 3.0 8.0 0.00 0.00 0.00 64 1009.7
20260506155017 70 247 3.0 6.0 0.00 0.00 0.00 62 1009.7
20260506154017 70 217 2.0 7.0 0.00 0.00 0.00 63 1009.9
20260506153017 70 221 3.0 8.0 0.00 0.00 0.00 62 1009.9
20260506152016 70 227 3.0 10.0 0.00 0.00 0.00 63 1010.0
20260506151017 69 225 3.0 6.0 0.00 0.00 0.00 65 1010.1
20260506150020 68 222 3.0 7.0 0.00 0.00 0.00 66 1010.2
20260506145018 67 193 2.0 4.0 0.00 0.00 0.00 67 1010.3
20260506144059 67 224 2.0 4.0 0.00 0.00 0.00 67 1010.3
20260506143018 67 197 1.0 3.0 0.00 0.00 0.00 67 1010.2
20260506142019 67 215 2.0 5.0 0.00 0.00 0.00 68 1010.2
20260506141018 67 201 2.0 4.0 0.00 0.00 0.00 68 1010.1
20260506140018 67 205 2.0 3.0 0.00 0.00 0.00 69 1010.2
20260506135019 66 230 2.0 6.0 0.00 0.00 0.00 69 1010.1
20260506134039 66 215 3.0 6.0 0.00 0.00 0.00 70 1010.1
20260506133100 65 241 1.0 4.0 0.00 0.00 0.00 72 1010.3
20260506132020 64 231 2.0 5.0 0.00 0.00 0.00 74 1010.6
20260506131019 64 209 2.0 5.0 0.00 0.00 0.00 75 1010.7
20260506130018 63 229 2.0 11.0 0.00 0.00 0.00 76 1010.7
20260506125019 63 202 3.0 5.0 0.00 0.00 0.00 77 1010.6
20260506124020 62 223 2.0 3.0 0.00 0.00 0.00 78 1010.6
20260506123020 62 220 2.0 4.0 0.00 0.00 0.00 79 1010.6
20260506122020 61 208 2.0 4.0 0.00 0.00 0.00 80 1010.6
20260506121021 61 220 2.0 3.0 0.00 0.00 0.00 80 1010.6
20260506120020 60 220 3.0 4.0 0.00 0.00 0.00 81 1010.6
20260506115021 60 218 2.0 5.0 0.00 0.00 0.00 82 1010.8
20260506114041 59 235 2.0 6.0 0.00 0.00 0.00 84 1010.9
20260506113016 59 220 2.0 4.0 0.00 0.00 0.00 84 1010.9
20260506112022 59 215 3.0 9.0 0.00 0.00 0.00 84 1011.0
20260506111017 59 244 2.0 6.0 0.00 0.00 0.00 84 1010.9
20260506110022 58 240 3.0 4.0 0.00 0.00 0.00 85 1010.8
20260506105041 58 212 2.0 3.0 0.00 0.00 0.00 85 1010.9
20260506104022 58 259 2.0 7.0 0.00 0.00 0.00 85 1010.8
20260506103022 58 238 2.0 4.0 0.00 0.00 0.00 85 1010.8
20260506102023 58 250 2.0 5.0 0.00 0.00 0.00 85 1010.7
20260506101042 58 233 2.0 4.0 0.00 0.00 0.00 85 1010.8
20260506100022 58 221 1.0 3.0 0.00 0.00 0.00 85 1010.7
20260506095022 58 203 2.0 4.0 0.00 0.00 0.00 85 1010.6
20260506094022 58 266 2.0 5.0 0.00 0.00 0.00 85 1010.6
20260506093023 58 258 2.0 3.0 0.00 0.00 0.00 84 1010.5
20260506092023 58 225 2.0 5.0 0.00 0.00 0.00 84 1010.7
20260506091023 58 218 2.0 4.0 0.00 0.00 0.00 84 1010.7
20260506090024 58 240 2.0 4.0 0.00 0.00 0.00 84 1010.7
20260506085024 58 121 2.0 4.0 0.00 0.00 0.00 83 1010.7
20260506084024 58 240 2.0 4.0 0.00 0.00 0.00 83 1010.9
20260506083020 58 220 2.0 5.0 0.00 0.00 0.00 83 1010.9
20260506082025 58 251 2.0 4.0 0.00 0.00 0.00 83 1010.9
20260506081043 59 240 2.0 4.0 0.00 0.00 0.00 82 1010.9
20260506073020 59 238 3.0 6.0 0.00 0.00 0.00 81 1011.0
20260506072020 59 267 3.0 9.0 0.00 0.00 0.00 80 1010.9
20260506071020 59 225 3.0 7.0 0.00 0.00 0.00 80 1010.9
20260506062025 61 217 2.0 4.0 0.00 0.00 0.00 77 1010.6
20260506061021 61 209 3.0 6.0 0.00 0.00 0.00 76 1010.7
20260506051046 62 230 2.0 5.0 0.00 0.00 0.00 73 1011.0
20260506045023 62 220 3.0 5.0 0.00 0.00 0.00 72 1011.1
20260506044016 62 224 3.0 7.0 0.00 0.00 0.00 72 1011.1
20260506043016 62 222 2.0 5.0 0.00 0.00 0.00 72 1011.3
20260506042038 63 218 2.0 6.0 0.00 0.00 0.00 71 1011.2
20260506041021 63 224 3.0 8.0 0.00 0.00 0.00 70 1011.2
20260506040018 63 221 3.0 10.0 0.00 0.00 0.00 70 1011.3
20260506035018 63 233 2.0 10.0 0.00 0.00 0.00 70 1011.1
20260506034018 63 242 2.0 6.0 0.00 0.00 0.00 69 1011.1
20260506033018 63 230 2.0 7.0 0.00 0.00 0.00 69 1011.1
20260506032019 63 226 2.0 5.0 0.00 0.00 0.00 69 1011.1
20260506031019 62 218 3.0 6.0 0.00 0.00 0.00 69 1011.0
20260506030019 63 213 3.0 7.0 0.00 0.00 0.00 69 1011.0
20260506025019 62 212 3.0 6.0 0.00 0.00 0.00 69 1011.0
20260506024020 62 231 2.0 6.0 0.00 0.00 0.00 69 1011.0
20260506023019 62 216 3.0 7.0 0.00 0.00 0.00 69 1011.0
20260506022019 62 217 2.0 6.0 0.00 0.00 0.00 69 1011.1
20260506021017 62 221 2.0 5.0 0.00 0.00 0.00 69 1011.0
20260506020017 62 227 3.0 6.0 0.00 0.00 0.00 69 1010.9
20260506015020 62 218 2.0 8.0 0.00 0.00 0.00 69 1010.9
20260506014020 62 216 2.0 4.0 0.00 0.00 0.00 69 1010.9
20260506013018 62 224 2.0 6.0 0.00 0.00 0.00 69 1010.9
20260506012018 62 209 3.0 7.0 0.00 0.00 0.00 68 1010.8
20260506011018 62 219 3.0 7.0 0.00 0.00 0.00 68 1010.7
20260506010038 62 217 2.0 5.0 0.00 0.00 0.00 68 1010.6
20260506005018 63 216 2.0 5.0 0.00 0.00 0.00 67 1010.5
20260506004018 63 214 2.0 5.0 0.00 0.00 0.00 66 1010.4
20260506003018 63 214 2.0 5.0 0.00 0.00 0.00 66 1010.1
20260506002019 64 218 3.0 6.0 0.00 0.00 0.00 66 1010.1
20260506001038 64 217 3.0 6.0 0.00 0.00 0.00 65 1010.0
20260506000038 64 220 2.0 5.0 0.00 0.00 0.00 65 1009.9
20260505235018 65 217 2.0 7.0 0.00 0.00 0.00 64 1009.7
20260505234019 66 220 2.0 7.0 0.00 0.00 0.00 62 1009.5
20260505233019 67 203 2.0 6.0 0.00 0.00 0.00 61 1009.3
20260505232020 68 233 2.0 8.0 0.00 0.00 0.00 59 1009.3
20260505231020 68 254 2.0 10.0 0.00 0.00 0.00 58 1009.1
20260505230019 69 223 2.0 5.0 0.00 0.00 0.00 57 1008.8
20260505225016 70 213 2.0 8.0 0.00 0.00 0.00 56 1008.6
20260505224017 71 224 2.0 6.0 0.00 0.00 0.00 54 1008.3
20260505223017 72 226 2.0 8.0 0.00 0.00 0.00 53 1008.4
20260505222021 72 216 2.0 8.0 0.00 0.00 0.00 52 1008.4
20260505221018 72 215 3.0 8.0 0.00 0.00 0.00 51 1008.4
20260505220017 73 216 1.0 5.0 0.00 0.00 0.00 52 1008.4
20260505215037 74 213 2.0 8.0 0.00 0.00 0.00 52 1008.4
20260505214018 74 199 2.0 7.0 0.00 0.00 0.00 50 1008.3
20260505213018 75 235 2.0 8.0 0.00 0.00 0.00 51 1008.1